{"data":{"norad_id":59232,"intl_designator":"2024-049B","name":"STARLINK-31305","alt_names":[],"object_type":"PAYLOAD","status":"ACTIVE","operator":null,"country":"US","launch_date":"2024-03-16","launch_site_code":"AFETR","launch_vehicle":null,"mission":null,"orbit_class":"UNKNOWN","rcs_meters":null,"size_class":null,"mass_kg":null,"dimensions":null,"purposes":["comms"],"wikipedia_slug":null,"has_3d_model":false,"image_url":null,"decayed_at":null,"tle_current":{"epoch":"2026-09-20T07:31:52.145472Z","epoch_age_seconds":174855,"freshness":"STALE","line1":"1 59232U 24049B   26263.31379798  .00000562  00000+0  29941-4 0  9997","line2":"2 59232  43.0013 124.1828 0001263 272.2825  87.7882 15.27575455142159","mean_motion":15.27575455,"eccentricity":0.0001263,"inclination_deg":43.0013,"raan_deg":124.1828,"arg_perigee_deg":272.2825,"mean_anomaly_deg":87.7882,"bstar":2.9941e-5,"rev_number":14215,"period_min":94.267029185802,"perigee_km":482.19613591565,"apogee_km":483.92927496125,"semimajor_km":6861.1997054385,"source":"CELESTRAK","updated_at":"2026-09-21T09:00:34.073959Z"}}}